Dansville, NY

11:50 PM EDT on October 19, 2017 (GMT -0400)
Dansville Municipal

Weather History for KDSV - December, 2012

Change the Weather History Date:

Monday, December 17, 2012

  Actual Average Record
Temperature  
Mean Temperature 50 °F -  
Max Temperature 53 °F 38 °F 60 °F (1984)
Min Temperature 45 °F 22 °F 2 °F (1963)
Degree Days  
Heating Degree Days 16    
Moisture  
Dew Point 44 °F    
Average Humidity 84    
Maximum Humidity 93    
Minimum Humidity 72    
Precipitation  
Precipitation 0.45 in - - ()
Sea Level Pressure  
Sea Level Pressure 29.70 in    
Wind  
Wind Speed 7 mph (SE)    
Max Wind Speed 12 mph    
Max Gust Speed -    
Visibility 9 miles    
Events Rain    
Averages and records for this station are not official NWS values.
T = Trace of Precipitation, MM = Missing Value Source: NWS Daily Summary

Daily Weather History Graph

Daily Weather History Graph

Search for Another Location

Airport or City:

Trip Planner

Search our weather history database for the weather conditions in past years. The results will help you decide how hot, cold, wet, or windy it might be!

Date:

Astronomy

Dec. 17, 2012 Rise Set
Actual Time 7:35 AM EST 4:39 PM EST
Civil Twilight 7:03 AM EST 5:11 PM EST
Nautical Twilight 6:27 AM EST 5:46 PM EST
Astronomical Twilight 5:53 AM EST 6:21 PM EST
Moon 10:37 AM EST (12/17) 10:04 PM EST (12/17)
Length of Visible Light 10h 07m
Length of Day
9h 03m
Waxing Crescent, 24% of the Moon is Illuminated
Dec 17
Waxing Crescent
Dec 20
First Quarter
Dec 28
Full
Jan 4
Last Quarter
Jan 11
New

Hourly Weather History & Observations

Time (EST) Temp. Windchill Dew Point Humidity Pressure Visibility Wind Dir Wind Speed Gust Speed Precip Events Conditions
12:39 AM 46.4 °F 41.5 °F 42.8 °F 87% 29.71 in 6.0 mi ESE 10.4 mph - 0.02 in Rain Light Rain
1:54 AM 46.9 °F - 43.0 °F 86% 29.75 in 10.0 mi ESE 6.9 mph - 0.00 in   Overcast
2:54 AM 46.0 °F 42.5 °F 44.1 °F 93% 29.76 in 10.0 mi ESE 6.9 mph - 0.05 in Rain Light Rain
3:54 AM 46.0 °F 42.5 °F 44.1 °F 93% 29.77 in 9.0 mi ESE 6.9 mph - 0.01 in Rain Light Rain
4:54 AM 46.9 °F - 43.0 °F 86% 29.76 in 10.0 mi ESE 9.2 mph - 0.01 in   Overcast
5:54 AM 46.0 °F 41.9 °F 43.0 °F 89% 29.75 in 10.0 mi SE 8.1 mph - N/A   Overcast
6:54 AM 46.9 °F - 43.0 °F 86% 29.77 in 10.0 mi ESE 6.9 mph - N/A   Overcast
7:54 AM 46.9 °F - 43.0 °F 86% 29.76 in 10.0 mi ESE 4.6 mph - N/A   Overcast
8:54 AM 48.0 °F - 44.1 °F 86% 29.78 in 10.0 mi ESE 4.6 mph - N/A   Overcast
9:54 AM 50.0 °F - 44.1 °F 80% 29.78 in 10.0 mi ESE 5.8 mph - N/A   Overcast
10:36 AM 51.8 °F - 44.6 °F 76% 29.75 in 10.0 mi Calm Calm - N/A   Overcast
10:54 AM 51.1 °F - 45.0 °F 80% 29.78 in 10.0 mi South 3.5 mph - N/A   Overcast
11:54 AM 51.1 °F - 46.0 °F 83% 29.75 in 10.0 mi Calm Calm - N/A   Overcast
12:54 PM 53.1 °F - 46.0 °F 77% 29.72 in 10.0 mi Calm Calm - N/A   Overcast
1:39 PM 51.8 °F - 46.4 °F 82% 29.68 in 10.0 mi SE 10.4 mph - N/A   Overcast
1:54 PM 53.1 °F - 46.0 °F 77% 29.70 in 10.0 mi SE 8.1 mph - N/A   Overcast
2:44 PM 53.6 °F - 44.6 °F 72% 29.65 in 10.0 mi SSE 9.2 mph - N/A   Overcast
2:54 PM 53.1 °F - 46.0 °F 77% 29.68 in 10.0 mi SE 8.1 mph - N/A   Overcast
3:10 PM 51.8 °F - 44.6 °F 76% 29.65 in 10.0 mi SE 11.5 mph - N/A   Overcast
3:54 PM 51.1 °F - 45.0 °F 80% 29.69 in 10.0 mi SSE 9.2 mph - N/A   Overcast
4:54 PM 50.0 °F - 45.0 °F 83% 29.69 in 10.0 mi Calm Calm - N/A   Overcast
7:32 PM 48.2 °F - 44.6 °F 87% 29.64 in 10.0 mi SSE 5.8 mph - 0.00 in   Overcast
7:54 PM 48.0 °F - 45.0 °F 89% 29.66 in 9.0 mi SSE 6.9 mph - 0.00 in Rain Light Rain
8:22 PM 48.2 °F - 44.6 °F 87% 29.62 in 8.0 mi Calm Calm - 0.01 in Rain Light Rain
8:41 PM 48.2 °F - 44.6 °F 87% 29.62 in 7.0 mi SSE 5.8 mph - 0.03 in Rain Rain
8:54 PM 48.0 °F - 45.0 °F 89% 29.65 in 7.0 mi SSE 6.9 mph - 0.05 in Rain Rain
9:54 PM 46.9 °F - 44.1 °F 90% 29.62 in 7.0 mi SSE 8.1 mph - 0.13 in Rain Rain
10:54 PM 46.0 °F 41.9 °F 43.0 °F 89% 29.60 in 6.0 mi SSE 8.1 mph - 0.14 in Rain Rain
11:54 PM 45.0 °F 40.6 °F 42.1 °F 90% 29.55 in 10.0 mi SSE 8.1 mph - 0.06 in Rain Light Rain